Temp
88 80 78 84 88 88 87 84 82 66 88 88 86 87 91 94 94 94 93 87 92 93 93 95 95 96 90 89 87 85 84 83 80 79 76 75 74 75 81 81 82 81 80 80
84 77 87 91 91 88 87 82 82 88 92 89 86 85 91 76 69 74 86 92 93 94 95 91 93 93 91 86 86 85 83 82 80 79 77 77 77 76 76 79 78 79 77 79
80 87 92 88 87 84 84 82 82 82 89 90 86 81 85 72 70 78 89 97 97 95 93 92 87 91 92 84 84 85 81 81 80 79 78 77 76 72 71 70 74 76 77 77
85 91 89 86 84 87 78 89 87 84 81 74 88 71 81 76 75 81 84 94 95 95 95 88 86 89 89 89 84 82 82 82 82 80 76 75 72 68 70 71 73 72 74 77
82 86 85 83 85 89 82 91 87 85 80 79 79 75 76 82 73 73 76 78 95 95 94 89 89 88 89 90 86 84 82 81 80 80 77 75 72 71 72 71 73 74 73 76
87 96 92 89 92 91 92 87 84 83 80 68 76 76 73 69 72 73 81 93 93 92 89 88 88 86 87 92 89 85 81 80 82 81 78 75 73 72 72 72 73 72 73 74
84 86 92 93 86 91 87 79 67 64 66 65 78 76 77 85 84 84 86 91 91 89 86 84 84 86 88 88 87 88 81 80 80 79 78 75 73 73 73 71 71 72 71 72
74 72 86 92 86 83 83 79 69 59 62 65 71 58 67 88 91 93 93 93 91 86 86 86 87 88 88 86 86 87 81 78 79 80 77 76 73 71 71 73 72 73 72 73
76 77 93 93 92 89 82 75 85 73 75 69 71 75 81 89 88 89 90 92 90 85 85 84 87 89 86 86 86 85 81 80 79 78 76 75 74 70 70 72 73 73 74 74
82 73 88 91 93 91 85 89 73 75 60 59 69 72 68 73 72 85 87 89 89 86 82 84 86 88 88 86 85 85 83 80 80 76 77 75 72 71 70 72 70 73 71 74
88 80 79 88 83 80 82 79 80 80 75 65 64 61 73 67 72 74 86 89 89 86 86 80 87 88 88 87 86 84 83 80 79 77 77 74 73 72 72 70 70 71 72 71
88 82 73 79 89 91 88 82 81 71 67 74 72 61 77 66 67 71 85 89 90 87 84 86 87 85 87 86 85 84 79 81 80 79 79 74 74 75 74 72 73 73 73 73
88 78 69 72 82 87 82 85 84 81 76 69 66 69 77 74 66 80 87 88 88 82 84 84 82 82 82 85 80 79 76 81 82 81 79 79 74 76 75 74 74 73 73 72
82 78 73 69 74 79 77 82 84 81 71 72 74 68 70 69 68 68 75 87 86 82 80 79 78 79 85 79 79 80 81 85 82 81 79 79 75 75 77 76 74 73 73 72
83 71 78 80 83 83 82 82 82 79 80 74 76 73 68 64 66 68 68 84 83 83 82 80 78 81 83 79 80 79 81 86 82 80 79 78 76 80 75 76 75 74 74 73
84 72 76 74 82 83 79 83 84 83 83 82 83 60 68 67 70 67 69 80 80 81 81 82 82 82 82 82 82 81 82 81 83 82 78 79 80 77 75 77 76 75 73 72
77 75 71 67 78 79 72 80 81 83 86 84 71 65 67 66 67 66 73 80 81 81 80 79 80 80 80 81 81 80 80 81 80 78 82 77 79 77 77 77 75 74 71 71
73 72 72 68 72 59 76 81 79 81 86 88 77 71 65 62 69 74 84 82 79 79 79 79 80 78 77 77 75 74 75 76 77 79 77 76 78 78 75 74 71 70 70 69
74 73 69 64 65 71 75 74 71 79 79 88 85 72 70 71 79 78 81 81 80 78 76 74 74 72 69 67 68 69 71 72 76 77 77 73 73 69 67 68 68 68 68 65
81 77 70 66 62 59 75 84 89 86 71 87 87 81 74 76 69 68 77 77 76 75 71 68 66 65 63 62 65 66 68 70 71 65 69 65 64 61 59 62 61 63 65 63
70 70 66 66 64 71 81 84 88 68 69 83 79 82 76 74 71 73 77 73 73 70 64 64 62 60 59 59 59 56 56 56 57 58 60 57 58 56 56 54 55 56 56 56
68 66 66 68 64 60 85 84 73 74 80 81 74 71 68 68 71 73 73 71 68 64 62 61 58 56 56 56 54 53 52 54 55 55 55 54 54 54 54 52 52 51 50 49
59 66 67 64 64 75 82 78 81 82 79 78 76 75 73 72 72 72 68 65 63 60 58 58 56 54 54 54 53 51 52 53 52 52 52 52 52 53 53 51 50 48 49 47
64 64 63 65 70 67 77 80 82 83 80 79 79 78 77 73 72 67 64 63 61 59 56 56 55 53 52 53 53 52 53 53 53 52 52 53 53 53 54 55 54 51 50 48
63 63 63 65 61 59 67 80 79 79 80 80 80 78 75 73 70 64 61 61 60 57 56 55 54 55 54 54 54 55 55 55 53 54 53 53 54 53 52 52 53 51 50 50
73 67 59 64 62 60 62 77 80 77 77 77 75 73 74 72 68 65 61 60 58 55 55 55 55 55 56 57 56 57 59 60 59 56 56 54 54 54 54 53 49 46 46 44
MSLP
1002.34 1002.01 1000.82 1000.10 999.47 999.08 998.28 998.35 998.92 1001.02 998.92 998.67 998.36 997.67 997.85 998.47 999.06 998.66 998.73 999.69 1000.20 1000.83 1001.44 1002.88 1004.11 1005.06 1006.42 1007.54 1008.57 1009.37 1009.93 1010.32 1010.82 1011.11 1011.51 1011.58 1011.37 1011.37 1010.99 1010.93 1011.02 1011.23 1011.59 1011.93
1001.49 1000.77 1000.14 999.62 999.01 998.66 998.29 998.22 998.35 998.24 997.95 997.94 997.79 997.89 998.61 1000.16 1001.69 1001.75 1000.78 999.76 999.82 999.63 1001.16 1002.61 1003.58 1004.64 1005.91 1007.24 1008.33 1009.22 1009.79 1010.15 1010.80 1011.27 1011.46 1011.58 1011.55 1011.56 1011.46 1011.32 1011.06 1011.28 1011.69 1011.82
1000.34 999.15 998.84 999.27 998.78 998.61 998.42 998.19 997.91 997.66 997.34 997.06 997.58 998.18 998.94 1001.61 1001.66 1001.52 999.90 998.97 999.13 999.82 1001.04 1002.29 1003.15 1004.08 1005.89 1007.49 1008.35 1008.96 1009.74 1010.29 1010.72 1011.21 1011.38 1011.53 1011.67 1011.51 1011.34 1011.38 1011.32 1011.10 1011.09 1011.61
999.48 999.02 998.42 998.61 998.43 998.43 998.15 997.95 998.08 998.01 997.93 997.33 997.47 997.50 998.58 1000.94 1001.65 1001.61 1000.98 999.51 999.45 1000.10 1001.28 1002.63 1003.88 1005.03 1005.97 1006.93 1007.80 1008.59 1009.24 1009.91 1010.54 1011.14 1011.32 1011.61 1011.74 1011.69 1011.34 1011.21 1011.17 1011.14 1011.09 1011.11
998.64 998.27 998.17 997.99 998.05 998.11 998.16 997.80 998.02 998.30 998.28 998.30 998.19 998.29 999.14 1000.10 1002.06 1001.73 1001.14 1000.22 999.30 1000.36 1001.64 1003.25 1004.34 1005.18 1006.09 1006.56 1007.24 1008.57 1009.15 1009.88 1010.49 1010.84 1011.15 1011.41 1011.65 1011.60 1011.24 1010.98 1010.81 1010.80 1010.93 1010.68
998.35 997.54 997.54 997.52 997.50 997.84 998.16 998.21 998.69 999.04 998.82 998.39 998.34 998.57 998.91 999.44 1001.00 1000.47 999.90 999.56 1000.10 1001.22 1002.65 1003.84 1004.92 1005.82 1005.96 1006.30 1007.19 1008.46 1009.20 1009.77 1010.20 1010.62 1010.98 1011.33 1011.44 1011.19 1010.98 1010.61 1010.42 1010.35 1010.53 1010.79
997.83 997.56 997.41 997.73 997.34 997.43 998.07 998.51 998.62 998.90 998.62 998.26 998.30 998.12 997.73 997.91 998.89 998.97 999.48 999.79 1000.81 1002.15 1003.45 1004.44 1005.54 1005.95 1006.02 1006.26 1007.35 1008.26 1009.36 1009.93 1010.17 1010.53 1010.93 1011.32 1011.44 1011.15 1010.85 1010.53 1010.14 1010.26 1010.44 1010.59
997.29 996.80 996.73 996.75 997.20 997.00 997.45 998.32 998.26 998.05 998.10 999.19 999.37 999.45 998.90 997.57 998.43 998.66 998.74 999.67 1000.85 1002.47 1003.55 1004.39 1005.35 1005.91 1006.21 1006.91 1007.73 1008.47 1009.50 1010.22 1010.38 1010.51 1010.90 1011.24 1011.55 1011.42 1010.97 1010.64 1010.28 1010.34 1010.47 1010.54
996.51 995.66 994.89 995.53 996.38 997.17 996.93 997.58 998.20 998.27 998.14 998.55 998.95 999.21 999.10 998.39 998.98 999.38 999.40 1000.01 1000.97 1002.71 1003.91 1005.12 1005.52 1005.77 1006.69 1007.29 1007.99 1008.72 1009.68 1010.24 1010.44 1010.70 1010.98 1011.34 1011.65 1011.72 1011.28 1010.82 1010.59 1010.59 1010.65 1010.70
996.70 996.08 995.45 994.88 995.80 996.53 996.96 997.22 997.76 998.17 998.22 998.16 998.08 999.02 999.81 1000.03 1000.91 1000.53 1000.23 1000.50 1001.31 1002.90 1004.26 1004.82 1005.03 1005.76 1006.62 1007.55 1008.43 1009.18 1009.73 1010.23 1010.42 1010.82 1011.05 1011.45 1011.93 1011.86 1011.53 1011.23 1011.10 1010.96 1011.04 1011.01
996.51 996.75 996.08 995.28 995.44 996.06 996.47 996.89 996.94 997.22 997.62 997.73 998.36 1001.15 1002.10 1002.23 1001.97 1001.87 1001.10 1000.97 1001.58 1002.90 1003.86 1005.00 1005.57 1006.18 1006.72 1007.72 1008.48 1009.18 1009.50 1010.01 1010.31 1010.75 1011.09 1011.46 1011.91 1012.00 1011.94 1011.83 1011.65 1011.55 1011.44 1011.34
996.23 996.55 996.46 995.53 995.40 996.01 995.71 995.92 996.61 996.97 997.47 997.69 998.50 1000.74 1002.15 1004.22 1003.79 1001.77 1001.90 1001.35 1001.82 1002.91 1004.28 1005.03 1005.76 1006.42 1006.92 1007.61 1008.07 1008.80 1009.08 1009.55 1010.19 1010.48 1010.85 1011.31 1011.68 1011.86 1011.98 1012.08 1011.96 1011.88 1011.89 1011.96
996.00 996.54 996.62 996.23 995.54 995.28 995.42 995.60 995.91 996.73 997.41 997.72 998.92 1001.07 1003.40 1004.04 1003.91 1001.88 1001.19 1001.80 1002.22 1003.51 1004.59 1005.45 1006.02 1006.55 1006.76 1007.34 1008.44 1009.16 1009.43 1009.60 1009.86 1010.13 1010.77 1010.90 1011.31 1011.54 1011.71 1012.02 1012.16 1012.19 1012.26 1012.31
997.06 996.94 996.83 996.07 995.57 995.64 995.22 995.29 995.45 995.79 996.44 997.23 998.19 1000.75 1002.52 1003.09 1002.97 1002.74 1003.59 1002.80 1003.20 1004.00 1005.15 1005.83 1006.25 1006.71 1006.93 1007.61 1008.43 1008.99 1009.22 1008.99 1009.63 1010.07 1010.66 1010.77 1011.07 1011.28 1011.37 1011.66 1012.06 1012.35 1012.54 1012.75
997.61 997.50 997.00 996.42 995.91 995.42 995.11 994.93 994.99 995.23 995.52 996.69 998.02 1000.27 1003.16 1003.55 1003.76 1004.00 1004.94 1003.88 1004.01 1004.42 1005.22 1005.97 1006.57 1006.89 1007.29 1007.66 1008.17 1008.59 1008.80 1008.95 1009.51 1009.99 1010.40 1010.66 1010.93 1010.93 1011.38 1011.70 1012.07 1012.32 1012.69 1013.03
997.90 997.91 997.79 997.00 996.28 995.52 995.12 994.90 994.68 994.79 995.32 996.19 997.69 1001.91 1004.05 1004.58 1004.95 1005.08 1005.79 1005.24 1004.93 1004.96 1005.66 1006.19 1006.87 1007.35 1007.79 1008.03 1008.27 1008.52 1008.56 1008.81 1009.29 1009.73 1010.08 1010.41 1010.70 1011.28 1011.57 1011.93 1012.29 1012.52 1012.84 1013.24
998.13 998.12 998.19 997.40 996.92 996.03 995.20 995.17 995.06 994.83 995.24 995.98 998.14 1001.51 1004.21 1005.90 1006.02 1005.74 1006.18 1005.38 1005.22 1005.43 1006.29 1007.07 1007.59 1008.08 1008.61 1008.66 1008.85 1009.05 1009.22 1009.36 1009.47 1009.82 1010.04 1010.47 1010.92 1011.45 1011.79 1012.00 1012.32 1012.81 1013.28 1013.79
998.77 998.66 998.51 997.96 997.44 996.44 995.94 996.32 995.65 995.46 995.21 995.90 998.43 1000.93 1003.10 1003.29 1004.86 1005.74 1004.44 1004.89 1005.53 1006.55 1007.16 1007.77 1008.23 1008.90 1009.49 1009.78 1010.02 1010.23 1010.20 1010.15 1009.92 1010.06 1010.28 1010.64 1011.10 1011.59 1012.03 1012.55 1013.33 1013.92 1014.31 1014.77
999.23 999.68 998.98 998.59 997.82 997.19 997.17 996.77 996.73 996.30 995.97 996.43 997.66 1000.35 1002.95 1004.29 1005.26 1005.23 1005.76 1006.40 1006.68 1007.40 1008.27 1009.20 1009.89 1010.54 1011.13 1011.44 1011.47 1011.16 1010.85 1010.80 1010.41 1010.40 1010.72 1011.11 1011.62 1012.62 1013.30 1013.96 1014.30 1014.79 1015.22 1015.92
999.09 999.58 999.98 999.67 998.28 997.29 996.34 996.28 996.62 997.03 996.93 997.09 998.26 999.89 1002.40 1004.00 1004.92 1006.61 1006.96 1007.69 1008.17 1008.95 1010.13 1010.92 1011.41 1011.84 1012.15 1012.37 1012.08 1011.74 1011.22 1011.20 1011.19 1011.69 1011.92 1012.26 1013.18 1014.16 1014.93 1015.15 1015.50 1015.90 1016.24 1016.89
999.43 999.66 999.58 999.48 998.91 997.72 996.84 997.19 997.37 997.63 998.63 998.76 999.77 1000.10 1002.28 1003.92 1005.08 1006.57 1007.55 1008.56 1009.41 1010.42 1011.54 1012.04 1012.51 1012.82 1013.12 1013.28 1013.23 1013.23 1013.14 1013.08 1013.27 1013.17 1013.34 1013.78 1014.72 1015.76 1016.20 1016.39 1016.75 1017.22 1017.78 1018.35
999.41 999.74 999.89 999.94 999.43 998.40 997.70 997.66 998.14 999.10 999.39 999.84 1001.40 1002.82 1003.83 1005.37 1006.42 1007.27 1008.52 1009.53 1010.60 1011.66 1012.40 1013.00 1013.48 1013.90 1014.11 1014.18 1014.21 1014.37 1014.42 1014.64 1014.53 1014.37 1014.75 1015.37 1015.90 1016.56 1017.04 1017.30 1018.19 1018.83 1019.25 1019.67
1001.75 1001.94 1000.87 1001.38 1000.69 999.77 999.15 999.16 999.44 999.52 1000.01 1000.91 1002.10 1003.42 1004.47 1005.64 1006.85 1008.11 1009.45 1010.80 1011.79 1012.76 1013.35 1013.83 1014.25 1014.73 1014.94 1015.03 1015.04 1015.23 1015.66 1015.63 1015.82 1015.70 1016.05 1016.48 1016.97 1017.57 1018.09 1018.43 1019.08 1019.63 1020.24 1020.63
1003.42 1004.11 1003.70 1003.23 1002.24 1002.13 1001.14 1000.36 999.99 1000.28 1000.96 1001.80 1002.78 1003.77 1004.87 1006.07 1007.51 1009.21 1010.55 1011.56 1012.55 1013.37 1013.99 1014.43 1014.69 1015.26 1015.69 1015.84 1015.86 1016.02 1016.35 1016.42 1016.62 1016.78 1017.15 1017.50 1017.90 1018.29 1018.78 1019.18 1019.85 1020.54 1021.19 1021.55
1004.07 1004.45 1003.97 1003.72 1003.80 1004.46 1002.37 1001.03 1001.04 1001.48 1002.06 1002.61 1003.45 1004.29 1005.47 1006.71 1008.26 1009.96 1011.25 1012.21 1013.09 1013.88 1014.51 1014.99 1015.20 1015.52 1016.04 1016.38 1016.39 1016.54 1016.88 1016.92 1017.14 1017.48 1017.90 1018.20 1018.62 1019.15 1019.74 1020.25 1021.02 1021.76 1022.16 1022.33
1003.73 1004.27 1004.80 1004.04 1004.59 1005.75 1004.84 1002.58 1002.53 1002.64 1003.13 1003.71 1004.61 1005.53 1006.52 1007.51 1008.84 1010.36 1011.71 1012.82 1013.70 1014.39 1015.01 1015.36 1015.68 1015.92 1016.20 1016.38 1016.64 1016.93 1017.07 1017.16 1017.43 1017.87 1018.38 1018.85 1019.25 1019.78 1020.32 1021.06 1022.00 1022.68 1022.85 1022.97
Wind_Speed
14 12 14 17 18 18 21 19 14 33 11 4 9 11 6 7 0 10 12 23 16 12 14 16 14 12 14 12 9 7 7 6 5 3 4 4 5 5 6 1 4 4 5 8
13 15 18 17 17 17 16 16 16 12 9 4 9 12 11 17 20 33 25 12 12 12 9 14 16 12 12 11 9 6 5 6 5 3 3 3 2 4 5 5 6 4 6 9
16 12 18 15 16 15 15 14 15 14 14 5 11 13 16 9 21 23 23 5 6 11 13 14 7 13 8 12 9 8 6 5 5 5 3 3 3 5 3 5 5 6 7 8
16 17 17 8 16 14 14 13 12 13 13 12 11 10 11 16 15 5 30 6 5 9 7 10 12 9 7 7 8 7 7 6 2 2 2 5 5 4 4 3 4 4 7 8
16 13 15 17 12 14 14 12 7 8 13 14 17 11 8 10 8 9 11 33 6 12 12 16 13 10 8 7 11 9 8 7 5 0 3 2 3 5 5 5 7 7 6 8
17 15 12 13 14 13 12 14 6 12 13 13 15 15 7 8 12 6 12 4 14 12 18 16 13 9 9 8 11 10 8 6 3 2 5 4 5 8 6 6 5 5 4 5
18 18 12 10 13 13 11 12 9 11 11 13 12 17 12 18 16 12 13 12 14 20 17 15 11 9 7 10 8 3 8 4 5 5 3 6 7 8 7 8 4 4 4 3
14 15 20 16 16 14 16 14 11 15 7 3 12 4 17 16 12 9 12 15 17 20 17 14 12 8 10 10 6 2 6 5 3 4 4 4 6 6 5 6 3 1 3 3
14 18 11 19 14 15 13 13 16 18 19 9 12 12 16 8 12 10 11 12 13 20 14 11 8 9 10 7 5 7 5 4 5 4 3 4 5 6 5 6 5 2 2 1
20 15 14 10 16 16 17 10 10 10 16 16 9 10 8 9 9 3 8 10 11 19 19 13 8 12 10 8 7 6 6 4 5 6 3 5 6 6 5 6 7 7 5 4
17 14 15 11 12 13 12 15 14 12 12 13 11 6 4 3 5 6 8 10 13 17 16 14 11 11 10 9 7 5 7 6 5 4 3 6 5 4 4 5 5 6 5 5
13 8 13 17 12 12 17 15 18 9 13 12 8 4 17 7 4 12 18 11 12 17 17 15 12 10 10 12 11 6 6 7 5 4 3 7 6 2 4 3 3 4 5 4
14 9 12 13 14 15 17 16 15 13 13 13 9 4 12 17 4 20 12 12 11 18 14 12 9 7 6 8 11 5 4 5 7 5 3 1 6 5 4 3 3 4 4 5
6 10 11 14 11 7 9 12 14 15 11 14 15 8 6 7 9 14 16 7 14 18 16 10 6 7 6 9 8 6 4 5 8 6 4 2 4 4 3 5 5 5 4 6
8 13 15 19 17 13 13 19 17 18 16 13 10 8 15 11 6 5 6 3 10 13 12 10 7 6 3 6 5 8 7 3 9 6 6 4 5 2 5 6 5 6 5 5
13 12 13 18 20 18 14 15 9 14 16 19 17 18 11 11 4 5 9 9 11 11 14 10 9 7 5 5 3 3 2 3 5 3 7 6 4 7 6 6 6 6 7 6
14 11 12 16 18 19 17 9 13 14 13 14 3 16 18 12 7 13 17 14 13 13 10 7 6 5 4 3 5 6 7 4 3 5 4 7 6 8 5 4 5 6 10 11
7 10 10 13 15 18 14 7 14 23 9 13 19 25 17 21 16 19 13 13 14 11 9 8 6 7 8 8 8 8 9 8 6 5 4 7 7 5 6 5 9 11 11 11
8 11 8 12 13 12 4 5 6 21 10 5 4 27 22 21 18 13 12 11 11 11 10 8 7 9 8 8 8 7 6 7 8 4 4 7 7 14 13 10 10 10 11 11
14 8 9 13 14 20 11 13 10 1 7 3 8 21 25 20 13 10 9 9 10 11 10 7 7 7 8 9 8 8 7 4 5 10 10 15 14 13 11 11 11 10 11 12
14 13 15 13 13 15 8 10 5 10 4 10 19 8 18 8 8 13 12 12 10 11 8 9 9 9 9 9 8 8 8 11 9 11 14 15 14 12 12 12 11 12 13 12
15 13 13 11 16 22 4 7 8 8 7 15 18 18 20 17 15 14 12 11 10 9 10 10 9 9 9 9 8 10 11 8 9 12 14 13 12 9 9 14 11 11 11 12
4 9 7 3 4 8 8 11 10 10 11 15 16 16 17 16 15 13 12 10 9 9 9 8 9 9 9 9 8 11 8 10 11 14 14 13 13 12 11 12 11 10 9 8
4 6 6 5 3 7 2 9 7 11 11 17 14 14 14 14 14 14 11 9 8 8 9 9 10 10 9 8 9 10 10 11 13 14 13 12 13 12 12 9 8 7 6 6
3 1 5 9 7 13 20 9 12 12 11 14 14 14 14 14 14 11 10 9 9 9 9 8 8 8 10 9 9 9 10 12 13 12 12 12 11 12 11 11 9 7 6 5
3 2 4 8 8 11 11 8 8 11 12 14 14 14 12 13 13 13 10 9 9 10 9 8 9 9 10 11 10 9 9 10 12 12 10 10 10 10 10 10 10 17 14 13
Wind_Direction
193 219 227 238 224 261 286 302 321 192 220 279 286 289 329 190 172 229 193 145 177 172 164 166 172 169 147 155 161 169 187 184 176 198 215 243 239 264 267 218 3 228 220 206
228 231 246 247 258 268 275 285 288 294 275 250 296 295 293 81 73 293 297 183 158 144 165 161 172 171 148 146 152 166 197 196 198 213 237 243 277 257 279 311 282 264 230 221
229 245 211 242 258 253 265 269 285 278 303 244 264 266 264 110 146 242 283 134 167 162 164 169 153 128 135 129 154 184 186 219 208 231 253 271 277 277 274 247 256 255 252 229
248 239 261 252 240 250 256 252 249 285 293 282 286 290 279 150 183 240 320 172 177 123 94 107 101 111 132 153 144 159 165 184 187 248 260 242 273 276 274 263 239 239 243 230
242 235 240 244 241 234 255 269 301 290 277 275 270 271 35 77 71 84 344 283 117 115 133 115 124 128 148 165 114 113 121 112 116 126 287 302 290 272 286 274 257 237 223 226
250 242 232 241 233 246 241 262 241 273 268 262 252 260 195 132 211 218 206 160 102 100 104 110 117 149 165 127 124 129 107 123 109 31 40 26 303 303 293 290 251 235 209 211
237 243 228 246 254 216 226 249 234 242 234 245 293 237 261 138 161 175 174 119 118 115 120 126 145 168 149 112 92 135 105 111 94 85 65 23 358 330 331 325 264 217 196 191
220 232 219 208 229 239 204 240 240 247 236 269 354 21 292 112 109 116 130 148 139 134 139 143 141 174 113 105 113 128 105 78 89 85 67 40 19 340 345 338 348 191 207 204
260 243 211 209 191 238 240 212 252 270 282 239 197 231 219 130 116 126 137 156 143 140 130 137 182 133 107 113 113 93 97 118 92 104 55 64 41 348 352 8 14 32 78 172
257 275 282 194 190 206 247 225 231 239 264 276 252 229 132 62 31 125 156 163 141 135 147 171 159 123 124 124 99 104 112 104 71 73 61 73 67 26 356 38 33 44 40 37
223 255 274 253 200 235 207 239 251 252 236 250 272 68 133 118 243 304 205 166 147 138 143 124 146 128 134 125 127 175 120 133 103 84 5 117 103 67 48 21 39 28 50 58
218 231 243 264 198 225 259 226 228 242 247 267 285 164 147 150 304 256 232 157 159 144 139 141 139 137 148 175 157 149 130 138 125 111 110 137 142 114 94 144 75 67 58 76
217 211 250 252 266 196 216 235 219 222 268 279 292 150 155 160 134 220 147 151 136 126 134 143 155 154 125 113 98 114 285 189 138 134 126 191 155 180 156 140 102 82 70 63
343 280 220 249 236 9 236 239 254 247 227 243 249 110 71 358 5 21 338 152 117 137 149 154 136 148 143 113 137 150 223 216 134 139 157 157 152 187 188 152 126 125 114 96
258 262 262 241 268 269 266 243 220 249 237 255 283 142 182 152 128 30 330 141 134 137 115 105 102 110 163 116 125 167 199 157 128 150 171 148 169 170 103 100 101 126 134 132
250 244 261 268 274 263 229 256 259 226 245 244 256 103 161 144 170 227 260 170 168 157 145 149 112 96 59 25 56 32 153 132 161 193 185 168 121 110 119 122 118 131 133 122
217 240 239 253 250 263 269 258 278 253 266 283 354 147 158 171 157 208 210 182 175 130 121 115 118 106 73 45 20 350 15 360 146 162 198 136 149 135 141 155 118 76 66 79
307 254 263 256 265 265 256 350 0 310 264 260 126 151 160 154 219 233 158 169 127 135 145 128 91 56 33 12 4 352 340 326 313 184 228 142 158 160 156 108 84 82 78 76
159 272 262 252 261 270 140 158 151 275 260 330 91 133 154 167 181 96 117 138 131 101 77 71 57 39 28 12 343 321 290 284 284 263 221 145 84 66 58 62 80 91 90 80
233 220 260 260 250 252 264 111 158 339 263 70 49 129 134 145 173 157 125 104 98 85 64 65 62 54 37 12 8 11 23 43 358 53 78 80 82 85 77 71 67 79 84 80
221 233 230 241 257 269 92 121 158 206 94 43 51 92 137 123 82 128 126 96 87 76 71 69 58 52 37 31 46 46 47 52 60 76 81 83 82 79 77 70 56 67 80 78
206 211 225 243 237 247 137 178 234 94 109 86 81 83 93 115 124 131 120 115 101 85 74 65 61 51 44 55 65 63 55 46 66 79 79 78 82 85 83 85 78 72 76 81
245 331 282 1 352 20 55 91 121 119 113 103 104 110 121 123 125 122 105 107 94 88 80 74 77 69 56 58 70 78 66 71 73 80 81 84 85 84 83 84 85 84 82 86
76 67 295 333 52 352 169 129 134 120 109 113 114 121 123 126 124 117 125 125 119 104 93 93 91 83 78 74 80 86 89 91 91 90 92 91 91 92 86 83 81 80 88 86
35 167 246 263 326 347 308 112 107 119 128 116 119 115 120 122 121 127 121 129 114 104 101 98 94 94 105 110 104 103 104 101 97 93 90 88 81 81 78 68 72 79 60 81
358 279 308 321 72 209 289 116 145 139 129 110 113 111 112 119 130 121 123 120 116 112 114 112 107 108 108 107 104 107 114 113 103 100 98 99 99 97 94 90 79 54 63 58